Regional Weather Roundup
Issued by NWS

Home | Current Version | Previous Version | Text Only | Print | Product List | Glossary On
Versions: 1 2 3 4 5 6 7 8 9 10 11 12 13 14 15 16 17 18 19 20 21 22 23 24 25 26 27 28 29 30 31 32 33 34 35 36 37 38 39 40 41 42 43 44 45 46 47 48 49 50
000
ASUS45 KCYS 261110
RWRWY

WYOMING REGIONAL WEATHER ROUNDUP
NATIONAL WEATHER SERVICE CHEYENNE WY
500 AM MDT THU MAY 26 2016

NOTE:  "FAIR" INDICATES FEW OR NO CLOUDS BELOW 12,000 FEET
WITH NO SIGNIFICANT WEATHER AND/OR OBSTRUCTIONS TO VISIBILITY.

WYZ001-261200-
YELLOWSTONE NATIONAL PARK

CITY           SKY/WX    TMP DP  RH WIND       PRES   REMARKS
LK YELLOWSTONE   N/A     30  28  92 CALM      30.12S
W YELLOWSTONE  NOT AVBL

$$
WYZ002>013-054>058-071-098>099-261200-
NORTHERN WYOMING

CITY           SKY/WX    TMP DP  RH WIND       PRES   REMARKS
JACKSON        FAIR      34  34 100 N6        30.09S WCI  29
CODY           FAIR      41  37  87 CALM      29.99S
GREYBULL       LGT RAIN  50  43  77 NW6       29.96F
WORLAND        FAIR      42  41  96 NW5       29.97R
SHERIDAN       CLOUDY    49  41  74 W13       29.92F
BUFFALO        FAIR      46  37  71 W10       29.96S
GILLETTE       FAIR      42  39  89 W7        29.94R
HULETT         FAIR      41  39  93 S8        29.94R
NEWCASTLE      FAIR      43  36  75 NW3       29.96R

$$
WYZ014>020-022>026-101>103-261200-
CENTRAL WYOMING

CITY           SKY/WX    TMP DP  RH WIND       PRES   REMARKS
BIG PINEY      FAIR      31  28  89 NW3       30.08F
PINEDALE       FAIR      32  30  93 MISG      30.08F
DUBOIS         FAIR      37  30  75 NW10      30.06S WCI  30
LANDER         FAIR      43  29  57 SW5       29.98F
RIVERTON       FAIR      43  33  68 W13       30.00S
CASPER         FAIR      37  34  89 SW8       29.98S WCI  31
DOUGLAS          N/A    N/A N/A N/A MISG      29.97S

$$
WYZ021-027>030-104>119-261200-
SOUTHERN WYOMING

CITY           SKY/WX    TMP DP  RH WIND       PRES   REMARKS
EVANSTON       FAIR      37  33  85 VRB3      30.08S
KEMMERER         N/A     32  32 100 NW7       30.08F WCI  26
FORT BRIDGER   SUNNY     37  37 100 W8        30.10S WCI  31
ROCK SPRINGS   FAIR      34  32  92 S7        30.06S WCI  28
DIXON          FAIR      35  30  81 CALM      30.09F
RAWLINS        FAIR      37  31  78 W5        30.05F WCI  33
SARATOGA       FAIR      30  30 100 SE7       30.07F WCI  23
LARAMIE        FAIR      32  29  88 CALM      30.06S
CHEYENNE       FAIR      39  32  76 W10       30.02F WCI  32
TORRINGTON     FAIR      38  36  92 CALM      29.95S
PINE BLUFFS    FAIR      36  34  93 SW3       30.00S

$$



USA.gov is the U.S. government's official web portal to all federal, state and local government web resources and services.